User: anonymous   Login
Location: Unspecified
(0.0000°N, 0.0000°E)
Time: 22:56:35
(UTC+00:00)
Language:

FALCONSAT 3 - Orbit

View from above orbital plane
View from above orbital plane
View from above satellite
View from above satellite

Ground track
Ground track

The orbit data is extracted from the following two-line orbital elements,

1 30776U 07006E   18343.88911020  .00002474  00000-0  71889-4 0  9998
2 30776  35.4346 227.5868 0003062 205.3628 154.6949 15.35313917651339
Epoch (UTC): 09 December 2018 21:20:19
Eccentricity: 0.0003062
inclination: 35.4346°
perigee height: 458 km
apogee height: 462 km
right ascension of ascending node: 227.5868°
argument of perigee: 205.3628°
revolutions per day: 15.35313917
mean anomaly at epoch: 154.6949°
orbit number at epoch: 65133

The dashed part of the orbit path shows where the satellite is in the earth's shadow,  

DLR